[[{"header":{"parameterUnit":"m.s-1","parameterCategory":1,"la1":30.2991,"la2":30.254,"lo1":-89.0895,"lo2":-89.0444,"dy":0.0017,"dx":0.0017,"nx":28,"ny":28,"refTime":"2025-01-12T09:00:00:Z","depth":0,"parameterNumber":2,"parameterNumberName":"U-component_of_WINDS"},"data":[0,0,0,0,0,0,0,0,0,0,0,0,0,0,0,0,0,0,0,0,0,0,0,0,0,0,0,0,0,0,0,0,0,0,0,0,0,0,0,0,0,0,0,0,0,0,0,0,0,0,0,0,0,0,0,0,0,0,-4.1335,-4.1336,0,-4.1413,-4.1414,-4.1415,-4.1312,-4.1308,-4.1305,-4.1301,-4.1381,-4.1387,-4.1392,0,0,0,0,0,0,0,0,0,0,0,0,0,-4.1098,-4.1103,-4.1335,-4.1336,-4.1337,-4.1413,-4.1414,-4.1415,-4.1313,-4.1308,-4.1304,-4.13,-4.1379,-4.1386,-4.1393,0,0,0,0,0,0,0,0,0,0,0,0,0,-4.1191,-4.1105,-4.1335,-4.1295,-4.1292,-4.1413,-4.1414,-4.1415,-4.1314,-4.1308,-4.1303,-4.1297,-4.1377,-4.1385,-4.1394,-4.1557,0,0,-4.1419,-4.1423,0,0,0,0,0,0,0,0,-4.1186,-4.12,-4.13,-4.1298,-4.1295,-4.1347,-4.136,-4.1463,-4.1315,-4.1306,-4.1301,-4.1295,-4.1374,-4.1383,-4.1409,-4.156,-4.1564,-4.142,-4.1425,-4.1429,-4.1431,0,0,0,0,0,0,0,-4.118,-4.1196,-4.1366,-4.1302,-4.1299,-4.1274,-4.1281,-4.1379,-4.137,-4.1306,-4.1299,-4.1309,-4.1372,-4.1402,-4.1411,-4.1565,-4.142,-4.1427,-4.1432,-4.1436,-4.1853,-4.1859,0,0,0,0,0,0,-4.1178,-4.1191,-4.1363,-4.1368,-4.1226,-4.1282,-4.129,-4.1336,-4.1369,-4.1369,-4.1314,-4.1304,-4.139,-4.1401,-4.1413,-4.1605,-4.1429,-4.1436,-4.1441,-4.1847,-4.1855,-4.1861,0,0,0,0,0,0,-4.1173,-4.1194,-4.136,-4.1278,-4.1297,-4.1292,-4.1345,-4.1341,-4.137,-4.1375,-4.1373,-4.1346,-4.1386,-4.1401,-4.1522,-4.1606,-4.144,-4.1448,-4.184,-4.185,-4.1858,-4.1991,0,0,0,0,0,0,-4.1167,-4.1193,-4.1255,-4.128,-4.1302,-4.1468,-4.135,-4.1346,-4.1385,-4.1373,-4.1404,-4.1404,-4.1383,-4.151,-4.153,-4.1615,-4.1454,-4.1832,-4.1844,-4.1855,-4.1979,-4.2004,-4.2025,0,0,0,0,0,-4.1159,-4.129,-4.1259,-4.128,-4.1379,-4.1473,-4.1485,-4.1458,-4.1392,-4.1454,-4.1457,-4.1403,-4.1595,-4.1523,-4.1545,-4.1634,-4.1827,-4.1841,-4.1854,-4.1969,-4.1999,-4.2024,0,0,0,0,0,0,-4.1274,-4.1292,-4.1258,-4.1401,-4.1436,-4.1455,-4.1532,-4.1491,-4.1546,-4.1532,-4.1496,-4.1504,-4.1633,-4.1645,-4.1565,-4.1793,-4.17,-4.1718,-4.178,-4.1808,-4.1831,-4.1824,-4.1461,0,0,0,0,0,-4.1316,-4.1391,-4.1403,-4.1528,-4.1547,-4.1537,-4.1577,-4.1553,-4.1588,-4.1603,-4.1615,-4.1651,-4.1719,-4.1765,-4.1828,-4.1982,-4.1986,-4.2054,-4.2076,-4.2095,-4.2111,-4.2193,-4.2222,-4.1906,-4.1906,-4.1906,0,0,-4.1404,-4.1423,-4.1472,-4.1551,-4.1576,-4.1654,-4.155,-4.1637,-4.1695,-4.1616,-4.173,-4.1741,-4.1779,-4.1916,-4.1977,-4.1931,-4.22,-4.2113,-4.2127,-4.2133,-4.221,-4.224,-4.2266,-4.1915,-4.1914,-4.1912,0,0,-4.1603,-4.1625,-4.1731,-4.1758,-4.1797,-4.179,-4.1816,-4.1842,-4.1845,-4.1959,-4.1902,-4.197,-4.2089,-4.2118,-4.2148,-4.236,-4.2312,-4.2382,-4.25,-4.258,-4.2605,-4.2627,-4.2701,-4.2728,-4.2398,-4.2399,-4.2399,0,-4.1706,-4.1821,-4.1791,-4.1882,-4.1918,-4.1852,-4.1958,-4.1986,-4.2044,-4.207,-4.2018,-4.2165,-4.2186,-4.2329,-4.2381,-4.2409,-4.2436,-4.2377,-4.2604,-4.2626,-4.2646,-4.2716,-4.2744,-4.2407,-4.2406,-4.2405,-4.2404,0,-4.1946,-4.2027,-4.2108,-4.2165,-4.2211,-4.231,-4.2295,-4.2345,-4.2318,-4.2316,-4.2433,-4.2457,-4.2523,-4.2556,-4.253,-4.2696,-4.2665,-4.261,-4.2514,-4.2684,-4.275,-4.2776,-4.2418,-4.2415,-4.2413,-4.2411,0,0,-4.2218,-4.2258,-4.2288,-4.2313,-4.2351,-4.2413,-4.251,-4.2574,-4.2618,-4.2661,-4.2739,-4.2842,-4.279,-4.2825,-4.2803,-4.2873,-4.3038,-4.2808,-4.2808,-4.2848,-4.3221,-4.3261,-4.3293,-4.3008,-4.3013,-4.3017,-4.3217,0,-4.2415,-4.258,-4.2557,-4.2716,-4.279,-4.2729,-4.2812,-4.2845,-4.2847,-4.291,-4.2912,-4.2985,-4.2912,-4.2932,-4.2999,-4.3004,-4.3112,-4.2989,-4.308,-4.3083,-4.307,-4.3327,-4.337,-4.3557,-4.3242,-4.3247,-4.325,0,-4.2667,-4.2718,-4.2885,-4.2912,-4.2942,-4.3018,-4.3075,-4.3137,-4.3174,-4.317,-4.321,-4.3175,-4.3271,-4.3176,-4.3308,-4.3225,-4.3261,-4.3269,-4.3276,-4.3281,-4.3175,-4.3337,-4.3617,-4.3644,-4.329,-4.3287,-4.3284,0,-4.2846,-4.2957,-4.3071,-4.3095,-4.313,-4.3184,-4.3202,-4.3232,-4.3273,-4.3324,-4.335,-4.3412,-4.3445,-4.3494,-4.3477,-4.341,-4.3612,-4.3516,-4.361,-4.3611,-4.3653,-4.3651,-4.394,-4.3681,-4.3681,-4.368,-4.368,0,-4.3067,-4.3171,-4.3152,-4.3222,-4.3337,-4.3309,-4.3424,-4.3433,-4.3462,-4.3532,-4.3484,-4.3551,-4.3526,-4.3592,-4.3579,-4.3689,-4.3706,-4.3705,-4.37,-4.3708,-4.3708,-4.3729,-4.3715,-4.3688,-4.3686,-4.3685,-4.3683,0,-4.3285,-4.3277,-4.3396,-4.342,-4.3429,-4.3512,-4.3532,-4.3598,-4.3597,-4.3687,-4.3707,-4.3705,-4.378,-4.3768,-4.3852,-4.3844,-4.3981,-4.3961,-4.3968,-4.3963,-4.4057,-4.4048,-4.4369,-4.4409,-4.4126,-4.4129,-4.4131,0,-4.3426,-4.3504,-4.3537,-4.3581,-4.3602,-4.3673,-4.3714,-4.3691,-4.3736,-4.3784,-4.3844,-4.3915,-4.397,-4.4094,-4.41,-4.4164,-4.4144,-4.4252,-4.4153,-4.4158,-4.4143,-4.4137,-4.4144,-4.4271,-4.4274,-4.4276,-4.4279,0,-4.3676,-4.3668,-4.3729,-4.379,-4.3841,-4.3887,-4.3929,-4.3968,-4.3948,-4.4002,-4.4078,-4.4121,-4.4207,-4.4278,-4.4338,-4.4355,-4.4314,-4.431,-4.4335,-4.4343,-4.4343,-4.4342,-4.4019,-4.4302,-4.43,-4.4298,-4.4297,-4.4296,-4.3858,-4.3924,-4.3958,-4.4028,-4.4057,-4.4097,-4.416,-4.4167,-4.423,-4.4298,-4.4281,-4.4367,-4.4402,-4.4478,-4.4503,-4.457,-4.453,-4.4567,-4.4575,-4.4584,-4.4594,-4.4335,-4.4581,-4.4581,-4.458,-4.4579,-4.4579,0,-4.4103,-4.4122,-4.4187,-4.4247,-4.4302,-4.426,-4.4304,-4.4353,-4.4429,-4.4466,-4.4521,-4.4609,-4.4678,-4.469,-4.4756,-4.4807,-4.479,-4.4825,-4.482,-4.4824,-4.4627,-4.4598,-4.4838,-4.4838,-4.4838,-4.4838,-4.4838,-4.4838,-4.4237,-4.4347,-4.4344,-4.4468,-4.4486,-4.457,-4.4599,-4.4636,-4.4665,-4.4765,-4.4822,-4.483,-4.4856,-4.4924,-4.4985,-4.4987,-4.5012,-4.5054,-4.5049,-4.4864,-4.4838,-4.4813,-4.4786,-4.5061,-4.5061,-4.5239,-4.5241,-4.5242]},{"header":{"parameterUnit":"m.s-1","parameterCategory":1,"la1":30.2991,"la2":30.254,"lo1":-89.0895,"lo2":-89.0444,"dy":0.0017,"dx":0.0017,"nx":28,"ny":28,"refTime":"2025-01-12T09:00:00:Z","depth":0,"parameterNumber":3,"parameterNumberName":"V-component_of_WINDS"},"data":[0,0,0,0,0,0,0,0,0,0,0,0,0,0,0,0,0,0,0,0,0,0,0,0,0,0,0,0,0,0,0,0,0,0,0,0,0,0,0,0,0,0,0,0,0,0,0,0,0,0,0,0,0,0,0,0,0,0,-0.5448,-0.5448,0,-0.5453,-0.5453,-0.5453,-0.5474,-0.5474,-0.5475,-0.5475,-0.5479,-0.5479,-0.5478,0,0,0,0,0,0,0,0,0,0,0,0,0,-0.5458,-0.5457,-0.5448,-0.5448,-0.5449,-0.5453,-0.5453,-0.5453,-0.5474,-0.5474,-0.5475,-0.5475,-0.5479,-0.5479,-0.5478,0,0,0,0,0,0,0,0,0,0,0,0,0,-0.5457,-0.5457,-0.5448,-0.5459,-0.546,-0.5453,-0.5453,-0.5453,-0.5473,-0.5474,-0.5475,-0.5476,-0.5479,-0.5479,-0.5478,-0.546,0,0,-0.5477,-0.5476,0,0,0,0,0,0,0,0,-0.5457,-0.5457,-0.5458,-0.5459,-0.546,-0.5463,-0.5458,-0.5455,-0.5473,-0.5468,-0.5475,-0.5476,-0.5473,-0.5473,-0.5472,-0.546,-0.5461,-0.5477,-0.5476,-0.5476,-0.5476,0,0,0,0,0,0,0,-0.5457,-0.5457,-0.545,-0.5458,-0.5459,-0.5464,-0.5465,-0.5457,-0.5467,-0.5469,-0.547,-0.5471,-0.5474,-0.5473,-0.5473,-0.5461,-0.5477,-0.5476,-0.5476,-0.5476,-0.5433,-0.5432,0,0,0,0,0,0,-0.5456,-0.5456,-0.545,-0.545,-0.546,-0.5463,-0.5464,-0.5461,-0.5467,-0.5468,-0.547,-0.5472,-0.5473,-0.5473,-0.5473,-0.5451,-0.5476,-0.5476,-0.5475,-0.5434,-0.5433,-0.5432,0,0,0,0,0,0,-0.5456,-0.5455,-0.545,-0.5454,-0.5454,-0.5462,-0.5459,-0.5461,-0.546,-0.5468,-0.5469,-0.5467,-0.5474,-0.5474,-0.5463,-0.5451,-0.5475,-0.5475,-0.5435,-0.5434,-0.5432,-0.5408,0,0,0,0,0,0,-0.5456,-0.5455,-0.5448,-0.5453,-0.5453,-0.544,-0.5459,-0.5461,-0.5459,-0.5461,-0.5465,-0.5467,-0.5475,-0.5464,-0.5462,-0.5451,-0.5474,-0.5436,-0.5434,-0.5433,-0.5409,-0.5406,-0.5402,0,0,0,0,0,-0.5456,-0.5441,-0.5448,-0.5447,-0.5445,-0.5439,-0.5439,-0.5448,-0.5458,-0.5451,-0.5456,-0.5467,-0.5453,-0.5462,-0.5461,-0.545,-0.5437,-0.5435,-0.5433,-0.5411,-0.5406,-0.5403,0,0,0,0,0,0,-0.5434,-0.5442,-0.5449,-0.5435,-0.5436,-0.5443,-0.5434,-0.5443,-0.5441,-0.5443,-0.5455,-0.5456,-0.5443,-0.5446,-0.5456,-0.5432,-0.5447,-0.5445,-0.543,-0.5426,-0.5423,-0.5422,-0.5474,0,0,0,0,0,-0.5427,-0.5422,-0.5429,-0.5416,-0.5417,-0.5425,-0.5423,-0.543,-0.5432,-0.5432,-0.5436,-0.5437,-0.5433,-0.543,-0.5427,-0.5411,-0.5411,-0.5402,-0.5399,-0.5396,-0.5393,-0.5383,-0.5379,-0.5426,-0.5426,-0.5426,0,0,-0.5414,-0.5417,-0.5413,-0.5412,-0.5414,-0.5407,-0.5426,-0.5419,-0.5414,-0.5431,-0.5421,-0.5424,-0.5426,-0.5412,-0.5406,-0.5414,-0.538,-0.5393,-0.5391,-0.539,-0.5381,-0.5377,-0.5373,-0.5425,-0.5425,-0.5425,0,0,-0.5385,-0.5388,-0.5377,-0.5378,-0.5381,-0.5387,-0.5384,-0.5389,-0.5391,-0.5382,-0.5394,-0.5389,-0.5382,-0.5383,-0.5382,-0.5354,-0.5363,-0.5353,-0.5334,-0.5324,-0.532,-0.5317,-0.5306,-0.5302,-0.5351,-0.535,-0.535,0,-0.5367,-0.5359,-0.537,-0.5362,-0.5361,-0.5377,-0.5365,-0.5366,-0.5367,-0.5365,-0.5374,-0.5365,-0.5368,-0.5354,-0.5347,-0.5346,-0.5343,-0.5351,-0.532,-0.5317,-0.5314,-0.5303,-0.5299,-0.5349,-0.5349,-0.5349,-0.5349,0,-0.5336,-0.533,-0.5321,-0.5321,-0.532,-0.531,-0.5319,-0.5316,-0.5324,-0.5328,-0.5318,-0.5322,-0.5319,-0.5317,-0.5324,-0.5303,-0.5308,-0.5318,-0.5333,-0.5308,-0.5298,-0.5294,-0.5347,-0.5348,-0.5348,-0.5348,0,0,-0.5292,-0.53,-0.5296,-0.5296,-0.53,-0.5295,-0.5286,-0.5284,-0.528,-0.5281,-0.5272,-0.5266,-0.5276,-0.5275,-0.5283,-0.5275,-0.5251,-0.5286,-0.5287,-0.5278,-0.5227,-0.5217,-0.5212,-0.5258,-0.5257,-0.5257,-0.5226,0,-0.5264,-0.5248,-0.5258,-0.5241,-0.5235,-0.5251,-0.5243,-0.5244,-0.5249,-0.5244,-0.5249,-0.5244,-0.5258,-0.5258,-0.5251,-0.5255,-0.524,-0.5258,-0.5249,-0.5249,-0.5246,-0.5207,-0.5197,-0.5168,-0.5222,-0.5222,-0.5221,0,-0.5228,-0.5226,-0.5208,-0.5213,-0.5211,-0.5204,-0.5202,-0.5198,-0.52,-0.5204,-0.5203,-0.5213,-0.5204,-0.522,-0.5207,-0.5219,-0.5216,-0.5218,-0.5217,-0.5215,-0.5232,-0.5202,-0.5159,-0.5154,-0.5215,-0.5216,-0.5216,0,-0.5195,-0.5189,-0.5177,-0.5177,-0.5183,-0.5177,-0.5179,-0.5182,-0.518,-0.5178,-0.5177,-0.5175,-0.5173,-0.5171,-0.518,-0.5191,-0.5165,-0.5182,-0.5167,-0.5167,-0.5159,-0.5159,-0.5113,-0.5161,-0.5161,-0.5161,-0.5161,0,-0.5161,-0.5148,-0.5163,-0.5155,-0.5142,-0.5154,-0.5141,-0.5145,-0.5147,-0.514,-0.5154,-0.5148,-0.5161,-0.5155,-0.5163,-0.515,-0.515,-0.5152,-0.5154,-0.5149,-0.5149,-0.5146,-0.5148,-0.516,-0.516,-0.5161,-0.5161,0,-0.5121,-0.513,-0.5118,-0.5124,-0.5126,-0.5116,-0.5121,-0.5114,-0.5121,-0.5112,-0.5111,-0.512,-0.5114,-0.5123,-0.5119,-0.5124,-0.5106,-0.5112,-0.5105,-0.5106,-0.509,-0.509,-0.5039,-0.5032,-0.5086,-0.5085,-0.5085,0,-0.5097,-0.5088,-0.5094,-0.509,-0.5092,-0.5086,-0.5084,-0.5096,-0.5093,-0.5094,-0.5087,-0.5083,-0.508,-0.507,-0.5076,-0.5073,-0.5077,-0.506,-0.5077,-0.5073,-0.5075,-0.5074,-0.5073,-0.5055,-0.5055,-0.5054,-0.5054,0,-0.5053,-0.5058,-0.5055,-0.5052,-0.5049,-0.5048,-0.5048,-0.5044,-0.5057,-0.5053,-0.5047,-0.5045,-0.5041,-0.5036,-0.5034,-0.5036,-0.5046,-0.5049,-0.5045,-0.5039,-0.5035,-0.5035,-0.5093,-0.5049,-0.505,-0.505,-0.505,-0.505,-0.502,-0.5012,-0.5015,-0.501,-0.5011,-0.5011,-0.5004,-0.501,-0.5005,-0.5002,-0.501,-0.5003,-0.5005,-0.5003,-0.5004,-0.4998,-0.5006,-0.5001,-0.4999,-0.4997,-0.4993,-0.5038,-0.4998,-0.4999,-0.4999,-0.4999,-0.4999,0,-0.4975,-0.4978,-0.4973,-0.4972,-0.4968,-0.498,-0.4981,-0.4976,-0.4969,-0.4971,-0.4968,-0.4961,-0.4956,-0.4963,-0.4959,-0.4953,-0.4957,-0.4951,-0.4951,-0.4951,-0.4988,-0.4991,-0.4947,-0.4947,-0.4947,-0.4947,-0.4947,-0.4947,-0.4951,-0.4938,-0.4944,-0.4932,-0.4935,-0.4927,-0.4926,-0.4926,-0.4927,-0.4919,-0.4915,-0.4919,-0.4922,-0.4919,-0.4915,-0.4917,-0.4914,-0.4906,-0.4909,-0.4943,-0.4948,-0.4953,-0.4956,-0.4906,-0.4906,-0.4873,-0.4872,-0.4872]}]]